8,
Avoca, PA
on Monday, February 4, 2013

Monday
Previous Day Next Day
Daily Summary
 ActualAverageRecord
Temperature
Mean Temperature °F 27°F  
Max Temperature 28°F 35°F 58°F (1991)
Min Temperature 16°F 19°F -6°F (1985)
Degree Days
Heating Degree Days 43 38  
Month to date heating degree days 177 153  
Since 1 July heating degree days 3394 3744  
Cooling Degree Days 0 0  
Month to date cooling degree days 0 0  
Year to date cooling degree days 0 0  
Moisture
Dew Point 9°F   
Average Humidity 56    
Maximum Humidity 74    
Minimum Humidity 38    
Precipitation
Precipitation T in 0.08 in 1.02 in (1961)
Month to date precipitation 0.02 0.32  
Year to date precipitation 2.04 2.69  
Wind
Wind Speed 10 mph   
Max Wind Speed 17 mph   
Max Gust Speed 25 mph   
Visibility 9 miles   
Events Snow   

Key: T is trace of precipitation, MM is missing value
Source: NWS Daily Summary
Time(EST)TemperatureDew PointHumidity Pressure Visibility Wind DirectionWind SpeedGust SpeedPrecipitationEvents Conditions
12:54 AM 21.0°F 10.0°F 63% 29.86 in 10.0 miles West 13.8 mph 19.6 mph N/A   Scattered Clouds
1:54 AM 19.9°F 7.0°F 57% 29.87 in 10.0 miles West 15.0 mph - N/A   Partly Cloudy
2:54 AM 19.9°F 7.0°F 57% 29.88 in 10.0 miles West 10.4 mph - N/A   Mostly Cloudy
3:54 AM 19.9°F 8.1°F 60% 29.89 in 10.0 miles West 8.1 mph - N/A   Overcast
5:54 AM 17.1°F 8.1°F 68% 29.92 in 10.0 miles SW 9.2 mph - N/A   Clear
6:54 AM 16.0°F 8.1°F 71% 29.94 in 10.0 miles SW 6.9 mph - N/A   Clear
7:54 AM 17.1°F 10.0°F 74% 29.96 in 8.0 miles SW 8.1 mph - N/A   Clear
8:54 AM 19.0°F 10.0°F 68% 29.96 in 9.0 miles WSW 9.2 mph - N/A   Overcast
9:54 AM 19.9°F 8.1°F 60% 29.96 in 10.0 miles WSW 9.2 mph 21.9 mph N/A   Overcast
10:54 AM 21.9°F 7.0°F 53% 29.97 in 10.0 miles West 16.1 mph 20.7 mph N/A   Overcast
11:54 AM 23.0°F 3.9°F 44% 29.95 in 10.0 miles West 12.7 mph - N/A   Mostly Cloudy
12:54 PM 26.1°F 5.0°F 41% 29.93 in 10.0 miles West 16.1 mph 25.3 mph N/A   Scattered Clouds
1:54 PM 27.0°F 5.0°F 39% 29.91 in 10.0 miles WSW 15.0 mph 19.6 mph N/A   Mostly Cloudy
2:54 PM 26.1°F 6.1°F 43% 29.91 in 10.0 miles WSW 13.8 mph - N/A   Mostly Cloudy
3:54 PM 25.0°F 7.0°F 46% 29.92 in 10.0 miles WSW 13.8 mph 24.2 mph N/A   Mostly Cloudy
4:54 PM 24.1°F 7.0°F 48% 29.92 in 10.0 miles WSW 12.7 mph - N/A   Mostly Cloudy
5:54 PM 24.1°F 8.1°F 51% 29.92 in 10.0 miles WSW 9.2 mph - N/A   Overcast
6:54 PM 24.1°F 9.0°F 53% 29.94 in 10.0 miles WSW 6.9 mph - N/A   Overcast
7:54 PM 24.1°F 9.0°F 53% 29.93 in 10.0 miles WSW 5.8 mph - N/A   Overcast
8:54 PM 24.1°F 10.0°F 55% 29.92 in 10.0 miles SW 3.5 mph - N/A   Overcast
9:54 PM 24.1°F 12.0°F 60% 29.92 in 10.0 miles SW 3.5 mph - N/A   Overcast
10:54 PM 23.0°F 15.1°F 72% 29.91 in 6.0 miles South 3.5 mph - 0.00 in Snow Light Snow
11:23 PM 23.0°F 17.6°F 80% 29.88 in 5.0 miles WSW 4.6 mph - 0.00 in Snow Light Snow
11:46 PM 23.0°F 17.6°F 80% 29.88 in 2.5 miles Calm Calm - 0.00 in Snow Light Snow
11:51 PM 23.0°F 17.6°F 80% 29.88 in 3.0 miles Calm Calm - 0.00 in Snow Light Snow
11:54 PM 23.0°F 18.0°F 81% 29.91 in 3.0 miles Calm Calm - 0.00 in Snow Light Snow
Astronomy
Sunrise:07:10 AM (EST) Moon Rise:01:44 AM (EST)2/4
Sunset:05:23 PM (EST) Moon Set:11:44 AM (EST)2/4
Moon Phase
Feb. 04 Feb. 10 Feb. 17 Feb. 25 Mar. 04

Copyright © 2014 The Weather Underground, Inc.
8,